Location: Garshuizen
(53.3675°N, 6.7248°E)
Time: 11:16:13
(UTC+00:00)

USA 290 - Pass Details

Date: 15 May 2026
Orbit: 396 x 415 km, 73.6° (Epoch: 30 October)

Event Time Altitude Azimuth Distance (km) Brightness Sun altitude
Exits shadow 21:18:07 16° 186° (S) 1,107 3.9 -12.3°
Maximum altitude 21:20:23 53° 112° (ESE) 489 2.2 -12.4°
Drops below altitude 10° 21:23:27 10° 35° (NE) 1,436 5.3 -12.7°
Sets 21:25:30 0° 30° (NNE) 2,296 6.4 -12.8°
